tititudorancea.com
Station Historical Data
Daily Summary for February 23, 2018 Units:  Metric    English   Both
« Previous Day
Next Day »
Daily Weekly Monthly Yearly Custom
  High: Low: Average:
Temperature: -17.8 °C 17.8 °C 24.8 °C
Dew Point: -17.8 °C 13.3 °C 16.3 °C
Humidity: Humidity % 27 % 65 %
Wind Speed: 0 km/h 0 km/h 9 km/h
Wind Gust: 0 km/h - -
Wind:- - SSE
Pressure: 0 hPa 1000.2 hPa -
Precipitation: 1.78 mm    
Historical Graphs
 
 
Ararat weather Find more about Weather in Ararat, AU


 



 


Tabular Data for February 23, 2018
Time Temperature Dew Point Pressure Wind Wind Speed Wind Gust Humidity Rainfall Rate (Hourly)
-17.8 °C -17.8 °C 0 hPa Calm     Humidity % 0 mm
00:02 17.8 °C 16.8 °C 1010.7 hPa Calm     94 % 0.51 mm
00:07 17.8 °C 16.8 °C 1010.7 hPa Calm     94 % 0.51 mm
00:12 17.8 °C 16.8 °C 1010.4 hPa Calm     94 % 0.51 mm
00:17 17.9 °C 16.9 °C 1010.4 hPa Calm   1.9 km/h 94 % 0.51 mm
00:22 17.9 °C 16.9 °C 1010.4 hPa Calm     94 % 0.51 mm
00:27 17.9 °C 16.9 °C 1010.4 hPa NNE 0.2 km/h 1.9 km/h 94 % 0.51 mm
00:32 17.9 °C 16.9 °C 1010.4 hPa Calm     94 % 0.51 mm
00:37 17.9 °C 16.9 °C 1010.4 hPa Calm     94 % 0.51 mm
00:42 17.9 °C 16.9 °C 1010 hPa Calm     94 % 0.51 mm
00:47 17.9 °C 16.9 °C 1010 hPa Calm     94 % 0.51 mm
00:52 17.9 °C 16.9 °C 1010 hPa Calm     94 % 0.51 mm
00:57 17.9 °C 16.9 °C 1009.7 hPa Calm     94 % 0.51 mm
01:02 17.9 °C 16.9 °C 1009.7 hPa Calm     94 % 0.51 mm
01:07 17.9 °C 17.1 °C 1009.7 hPa Calm     95 % 0.25 mm
01:12 17.9 °C 16.9 °C 1009.7 hPa Calm     94 % 0.25 mm
01:17 17.9 °C 17.1 °C 1009.7 hPa Calm     95 % 0.25 mm
01:22 17.9 °C 16.9 °C 1009.4 hPa Calm     94 % 0.25 mm
01:27 17.9 °C 17.1 °C 1009.4 hPa Calm     95 % 0.25 mm
01:32 18 °C 17.2 °C 1009.4 hPa Calm     95 % 0.25 mm
01:37 18.1 °C 17.2 °C 1009.4 hPa Calm     95 % 0.25 mm
01:42 18.1 °C 17.2 °C 1009.4 hPa Calm     95 % 0 mm
01:47 18.1 °C 17.2 °C 1009.7 hPa NNE 1.1 km/h 3.7 km/h 95 % 0 mm
01:52 18.1 °C 17.2 °C 1009.4 hPa NNE 1 km/h 3.7 km/h 95 % 0 mm
01:57 18.1 °C 17.2 °C 1009.4 hPa Calm     95 % 0 mm
02:02 18.1 °C 17.2 °C 1009.4 hPa Calm     95 % 0 mm
02:07 18.1 °C 17.2 °C 1009.4 hPa Calm     95 % 0 mm
02:12 18.1 °C 17.3 °C 1009.4 hPa Calm     95 % 0 mm
02:17 18.1 °C 17.3 °C 1009 hPa Calm     95 % 0 mm
02:22 18.2 °C 17.3 °C 1009 hPa Calm     95 % 0 mm
02:27 18.2 °C 17.3 °C 1009 hPa Calm     95 % 0 mm
02:32 18.2 °C 17.3 °C 1009 hPa Calm     95 % 0 mm
02:37 18.2 °C 17.3 °C 1009 hPa North 1.9 km/h 3.7 km/h 95 % 0 mm
02:42 18.2 °C 17.3 °C 1009 hPa Calm     95 % 0 mm
02:47 18.2 °C 17.3 °C 1008.7 hPa Calm     95 % 0 mm
02:52 18.2 °C 17.3 °C 1008.4 hPa NNE 0.2 km/h 1.9 km/h 95 % 0 mm
02:57 18.2 °C 17.3 °C 1008.4 hPa Calm     95 % 0 mm
03:02 18.2 °C 17.3 °C 1008.4 hPa Calm     95 % 0 mm
03:07 18.1 °C 17.3 °C 1008.4 hPa Calm     95 % 0 mm
03:12 18.1 °C 17.3 °C 1008.4 hPa Calm     95 % 0 mm
03:18 18.1 °C 17.3 °C 1008.4 hPa Calm     95 % 0 mm
03:22 18.1 °C 17.3 °C 1008.4 hPa Calm     95 % 0 mm
03:27 18.1 °C 17.3 °C 1008.4 hPa NNE 1.1 km/h 1.6 km/h 95 % 0 mm
03:32 18.2 °C 17.3 °C 1008.4 hPa NNE 1.9 km/h 3.7 km/h 95 % 0 mm
03:38 18.2 °C 17.3 °C 1008.4 hPa NNE 3.1 km/h 5.6 km/h 95 % 0 mm
03:43 18.2 °C 17.4 °C 1008.4 hPa North 3.4 km/h 5.6 km/h 95 % 0 mm
03:48 18.2 °C 17.4 °C 1008.4 hPa NNE 2.3 km/h 3.7 km/h 95 % 0 mm
03:53 18.2 °C 17.4 °C 1008.4 hPa NNE 2.4 km/h 5.6 km/h 95 % 0 mm
03:58 18.2 °C 17.3 °C 1008.4 hPa NNE 2.1 km/h 5.6 km/h 95 % 0 mm
04:03 18.2 °C 17.3 °C 1008 hPa NNE 2.7 km/h 5.6 km/h 95 % 0 mm
04:08 18.2 °C 17.4 °C 1008 hPa NNE 4 km/h 5.6 km/h 95 % 0 mm
04:13 18.3 °C 17.4 °C 1008 hPa North 3.5 km/h 5.6 km/h 95 % 0 mm
04:18 18.3 °C 17.4 °C 1008 hPa NNE 3.4 km/h 5.6 km/h 95 % 0 mm
04:23 18.3 °C 17.4 °C 1008 hPa Calm   1.9 km/h 95 % 0 mm
04:28 18.3 °C 17.5 °C 1007.7 hPa Calm     95 % 0 mm
04:33 18.3 °C 17.4 °C 1007.7 hPa Calm     95 % 0 mm
04:38 18.3 °C 17.4 °C 1007.7 hPa NNE 1.8 km/h 3.7 km/h 95 % 0 mm
04:43 18.3 °C 17.4 °C 1007.7 hPa North 3.1 km/h 4.8 km/h 95 % 0 mm
04:48 18.3 °C 17.3 °C 1007.7 hPa North 2.9 km/h 3.7 km/h 94 % 0 mm
04:53 18.3 °C 17.3 °C 1007.7 hPa NNE 3.1 km/h 3.7 km/h 94 % 0 mm
04:58 18.3 °C 17.3 °C 1007.7 hPa NNE 4 km/h 5.6 km/h 94 % 0 mm
05:03 18.4 °C 17.4 °C 1007.7 hPa NNE 2.9 km/h 5.6 km/h 94 % 0 mm
05:08 18.5 °C 17.5 °C 1007.7 hPa North 3.5 km/h 5.6 km/h 94 % 0 mm
05:13 18.5 °C 17.5 °C 1007.7 hPa NNE 5 km/h 6.4 km/h 94 % 0 mm
05:18 18.6 °C 17.4 °C 1007.7 hPa NNE 4.7 km/h 5.6 km/h 93 % 0 mm
05:23 18.7 °C 17.5 °C 1008 hPa North 1.9 km/h 5.6 km/h 93 % 0 mm
05:28 18.7 °C 17.4 °C 1008 hPa NNE 6 km/h 7.4 km/h 92 % 0 mm
05:33 18.8 °C 17.3 °C 1008 hPa North 5.8 km/h 7.4 km/h 91 % 0 mm
05:38 18.9 °C 17.4 °C 1008 hPa NNE 3.2 km/h 6.4 km/h 91 % 0 mm
05:43 19.1 °C 17.3 °C 1008.4 hPa North 8.4 km/h 16.7 km/h 89 % 0 mm
05:48 19.3 °C 17.3 °C 1008.4 hPa NNW 6.8 km/h 8 km/h 88 % 0 mm
05:53 19.4 °C 17.2 °C 1008.4 hPa NNW 1 km/h 3.7 km/h 87 % 0 mm
05:58 19.4 °C 17 °C 1008.4 hPa NNW 3.2 km/h 7.4 km/h 86 % 0 mm
06:03 19.3 °C 16.9 °C 1008.4 hPa North 4.8 km/h 5.6 km/h 86 % 0 mm
06:08 19.3 °C 17.1 °C 1008 hPa North 0.8 km/h 1.9 km/h 87 % 0 mm
06:13 19.2 °C 17 °C 1008.4 hPa North 0.2 km/h 1.9 km/h 87 % 0 mm
06:18 19.1 °C 17.1 °C 1008.4 hPa Calm     88 % 0 mm
06:23 19 °C 16.9 °C 1008.4 hPa Calm     88 % 0 mm
06:24 19 °C 17.2 °C 1008.4 hPa Calm     89 % 0 mm
06:29 18.9 °C 17.1 °C 1008.4 hPa Calm     89 % 0 mm
06:34 18.9 °C 17.2 °C 1008.4 hPa North 0.6 km/h 3.2 km/h 90 % 0 mm
06:39 18.8 °C 17.2 °C 1008.4 hPa Calm     90 % 0.25 mm
06:44 18.8 °C 17.1 °C 1008.4 hPa Calm     90 % 0.25 mm
06:49 18.7 °C 17.1 °C 1008.4 hPa Calm     90 % 0.25 mm
06:54 18.7 °C 17.2 °C 1008.4 hPa Calm     91 % 0.25 mm
06:59 18.7 °C 17.2 °C 1008.4 hPa North 2.7 km/h 3.2 km/h 91 % 0.25 mm
07:04 18.7 °C 17.2 °C 1008.7 hPa North 5.8 km/h 5.8 km/h 91 % 0.51 mm
07:09 18.7 °C 17.2 °C 1008.7 hPa Calm   3.7 km/h 91 % 0.51 mm
07:14 18.6 °C 17.1 °C 1008.7 hPa NNW 3.4 km/h 5.6 km/h 91 % 0.51 mm
07:19 18.6 °C 17.1 °C 1008.7 hPa North 2.3 km/h 4.8 km/h 91 % 0.51 mm
07:25 18.6 °C 17.1 °C 1008.4 hPa North 5.8 km/h 7.4 km/h 91 % 0.51 mm
07:30 18.6 °C 17.1 °C 1008.4 hPa NNW 7.1 km/h 7.4 km/h 91 % 0.51 mm
07:35 18.6 °C 17.1 °C 1008.4 hPa North 6 km/h 11.1 km/h 91 % 0.51 mm
07:40 18.7 °C 17.2 °C 1008.4 hPa NNW 6.3 km/h 11.1 km/h 91 % 0.25 mm
07:44 18.7 °C 17.1 °C 1008.4 hPa North 6.4 km/h 11.3 km/h 90 % 0.25 mm
07:49 18.8 °C 17.1 °C 1008 hPa North 5.5 km/h 7.4 km/h 90 % 0.25 mm
07:55 18.9 °C 17.1 °C 1008 hPa North 4.8 km/h 7.4 km/h 89 % 0.25 mm
08:00 19 °C 16.9 °C 1008 hPa North 3.7 km/h 7.4 km/h 88 % 0.25 mm
08:05 19.1 °C 17.1 °C 1008 hPa North 6.1 km/h 11.1 km/h 88 % 0 mm
08:10 19.2 °C 17 °C 1008 hPa North 5.6 km/h 7.4 km/h 87 % 0 mm
08:15 19.3 °C 17.1 °C 1008 hPa North 4 km/h 5.6 km/h 87 % 0 mm
08:20 19.3 °C 17.1 °C 1008 hPa North 4.2 km/h 7.4 km/h 87 % 0 mm
08:25 19.3 °C 16.9 °C 1007.7 hPa North 2.3 km/h 5.6 km/h 86 % 0 mm
08:30 19.4 °C 16.8 °C 1007.7 hPa North 7.2 km/h 9.3 km/h 85 % 0 mm
08:35 19.8 °C 16.8 °C 1007.7 hPa NE 6.4 km/h 11.1 km/h 83 % 0 mm
08:40 20.1 °C 16.7 °C 1007.7 hPa NE 6.6 km/h 9.3 km/h 81 % 0 mm
08:45 20.5 °C 16.7 °C 1007.7 hPa NE 10.5 km/h 11.3 km/h 79 % 0.25 mm
08:50 20.8 °C 16.6 °C 1007.7 hPa NE 8 km/h 13 km/h 77 % 0.25 mm
08:55 21.1 °C 16.7 °C 1007.3 hPa NNE 6.4 km/h 16.7 km/h 76 % 0.25 mm
09:00 21.2 °C 16.4 °C 1007.7 hPa NNE 10.5 km/h 17.7 km/h 74 % 0.25 mm
09:05 21.4 °C 16.4 °C 1007.7 hPa NNE 12.9 km/h 18.5 km/h 73 % 0.25 mm
09:10 21.6 °C 16.3 °C 1007.3 hPa NNE 10 km/h 14.8 km/h 72 % 0.25 mm
09:15 21.7 °C 16.2 °C 1007.3 hPa NNE 10.8 km/h 18.5 km/h 71 % 0.25 mm
09:20 21.7 °C 16.2 °C 1007.3 hPa NNE 10.8 km/h 18.5 km/h 71 % 0.25 mm
09:25 21.9 °C 16.4 °C 1007.3 hPa North 11.1 km/h 18.5 km/h 71 % 0.25 mm
09:30 22.3 °C 16.4 °C 1007.3 hPa North 15.1 km/h 25.9 km/h 69 % 0.25 mm
09:35 22.7 °C 16.7 °C 1007.3 hPa NNE 13.5 km/h 18.5 km/h 69 % 0.25 mm
09:40 22.8 °C 16.2 °C 1007.3 hPa NNE 17.7 km/h 22.2 km/h 66 % 0.25 mm
09:45 23.1 °C 16.2 °C 1007.3 hPa NNE 15.9 km/h 24.1 km/h 65 % 0 mm
09:50 23.3 °C 16.1 °C 1007.3 hPa NNE 9 km/h 22.2 km/h 64 % 0 mm
09:55 23.6 °C 15.8 °C 1007.3 hPa NNE 19.5 km/h 22.2 km/h 62 % 0 mm
10:00 23.9 °C 15.7 °C 1007.3 hPa NNE 19.5 km/h 31.5 km/h 60 % 0 mm
10:05 24.3 °C 15.5 °C 1007.3 hPa NNE 16.4 km/h 27.8 km/h 58 % 0 mm
10:10 24.6 °C 15.5 °C 1007.3 hPa NNE 14.3 km/h 27.4 km/h 57 % 0 mm
10:15 24.9 °C 15.3 °C 1007.3 hPa NNE 13.7 km/h 22.2 km/h 55 % 0 mm
10:20 25.2 °C 15.3 °C 1007 hPa NNE 14.3 km/h 20.4 km/h 54 % 0 mm
10:25 25.4 °C 15.1 °C 1007 hPa NNE 10.6 km/h 20.4 km/h 53 % 0 mm
10:30 25.7 °C 15.1 °C 1007 hPa North 13.5 km/h 20.4 km/h 52 % 0 mm
10:35 26.1 °C 15.1 °C 1007 hPa NNE 16.3 km/h 31.5 km/h 51 % 0 mm
10:40 26.4 °C 14.8 °C 1007 hPa NE 24.5 km/h 46.3 km/h 49 % 0 mm
10:45 26.6 °C 14.9 °C 1007 hPa ENE 18.2 km/h 29.6 km/h 49 % 0 mm
10:50 26.9 °C 15 °C 1006.7 hPa North 21.1 km/h 35.2 km/h 48 % 0 mm
10:55 27.2 °C 14.9 °C 1006.7 hPa NNE 26.2 km/h 42.6 km/h 47 % 0 mm
11:00 27.4 °C 14.7 °C 1006.7 hPa NNE 22.9 km/h 35.2 km/h 46 % 0 mm
11:05 27.4 °C 14.8 °C 1006.7 hPa NNE 17.4 km/h 31.5 km/h 46 % 0 mm
11:10 27.3 °C 15 °C 1006.7 hPa North 19.2 km/h 33.3 km/h 47 % 0 mm
11:15 27.2 °C 14.9 °C 1006.7 hPa NNE 20.3 km/h 31.5 km/h 47 % 0 mm
11:20 27.1 °C 15.2 °C 1006.7 hPa NNE 18.8 km/h 31.5 km/h 48 % 0 mm
11:25 27.1 °C 15.1 °C 1006.7 hPa NNE 20.9 km/h 29.6 km/h 48 % 0 mm
11:30 27.3 °C 15 °C 1006.7 hPa NNE 22.2 km/h 42.6 km/h 47 % 0 mm
11:35 27.7 °C 15.1 °C 1006.3 hPa NE 17.7 km/h 33.3 km/h 46 % 0 mm
11:40 28.1 °C 15.4 °C 1006.3 hPa NNE 15.1 km/h 31.5 km/h 46 % 0 mm
11:45 28.4 °C 15.3 °C 1006.3 hPa NNE 25.3 km/h 32.2 km/h 45 % 0 mm
11:50 28.7 °C 15.3 °C 1006.3 hPa NNE 20.6 km/h 31.5 km/h 44 % 0 mm
11:55 29.1 °C 15.3 °C 1006.3 hPa NE 18.7 km/h 29.6 km/h 43 % 0 mm
12:00 29.3 °C 15.8 °C 1006 hPa NE 18 km/h 31.5 km/h 44 % 0 mm
12:05 29.4 °C 15.9 °C 1006 hPa NNE 14.5 km/h 25.9 km/h 44 % 0 mm
12:10 29.8 °C 15.8 °C 1005.6 hPa North 14.2 km/h 14.8 km/h 43 % 0 mm
12:15 29.9 °C 16 °C 1005.6 hPa NE 14.3 km/h 27.4 km/h 43 % 0 mm
12:20 30.2 °C 15.8 °C 1005.6 hPa NNE 15 km/h 31.5 km/h 42 % 0 mm
12:25 30.7 °C 15.2 °C 1005.6 hPa NNE 29.1 km/h 40.7 km/h 39 % 0 mm
12:30 30.3 °C 14.8 °C 1005.3 hPa NNE 21.2 km/h 24.1 km/h 39 % 0 mm
12:35 30.1 °C 14.6 °C 1005.3 hPa NNE 22.4 km/h 37 km/h 39 % 0 mm
12:40 30 °C 14.1 °C 1005.3 hPa NNW 24.5 km/h 33.3 km/h 38 % 0 mm
12:45 30 °C 14.6 °C 1005.3 hPa North 18.7 km/h 27.4 km/h 39 % 0 mm
12:50 30.1 °C 14.2 °C 1005.3 hPa NNE 26.1 km/h 40.7 km/h 38 % 0 mm
12:55 30.1 °C 14.2 °C 1005.3 hPa North 26.2 km/h 35.4 km/h 38 % 0 mm
13:00 30.4 °C 14.5 °C 1005.3 hPa NE 18 km/h 33.3 km/h 38 % 0 mm
13:05 30.6 °C 14.3 °C 1005.3 hPa NE 21.9 km/h 37 km/h 37 % 0 mm
13:10 30.8 °C 14.4 °C 1005 hPa North 19.5 km/h 32.2 km/h 37 % 0 mm
13:16 31 °C 14.6 °C 1005 hPa NNE 17.1 km/h 27.8 km/h 37 % 0 mm
13:21 31.3 °C 14.4 °C 1005 hPa North 23.7 km/h 31.5 km/h 36 % 0 mm
13:26 31.1 °C 14.3 °C 1005 hPa North 22 km/h 24.1 km/h 36 % 0 mm
13:31 31.1 °C 14.3 °C 1004.6 hPa NNE 16.6 km/h 33.3 km/h 36 % 0 mm
13:36 31 °C 13.7 °C 1004.6 hPa North 26.6 km/h 38.9 km/h 35 % 0 mm
13:41 31 °C 13.7 °C 1004.6 hPa NNE 25.9 km/h 33.8 km/h 35 % 0 mm
13:46 31.2 °C 14.3 °C 1004.6 hPa NNE 21.7 km/h 31.5 km/h 36 % 0 mm
13:51 31.6 °C 13.8 °C 1004.6 hPa NNE 28 km/h 42.6 km/h 34 % 0 mm
13:56 31.8 °C 14.1 °C 1004.6 hPa NNE 21.4 km/h 31.5 km/h 34 % 0 mm
14:01 31.8 °C 13.5 °C 1004.3 hPa North 23.3 km/h 31.5 km/h 33 % 0 mm
14:06 31.6 °C 13.8 °C 1004.6 hPa NNW 19 km/h 29.6 km/h 34 % 0 mm
14:11 31.6 °C 13.8 °C 1004.3 hPa North 13.4 km/h 22.2 km/h 34 % 0 mm
14:16 31.8 °C 14 °C 1004.3 hPa NE 21.4 km/h 31.5 km/h 34 % 0 mm
14:21 31.8 °C 14.1 °C 1003.9 hPa North 15 km/h 25.9 km/h 34 % 0 mm
14:26 32.2 °C 13.9 °C 1003.9 hPa North 24.6 km/h 33.3 km/h 33 % 0 mm
14:31 32.4 °C 14.1 °C 1003.9 hPa North 20.6 km/h 31.5 km/h 33 % 0 mm
14:36 32.8 °C 13.9 °C 1003.9 hPa NNE 17.7 km/h 35.2 km/h 32 % 0 mm
14:41 32.8 °C 13.5 °C 1003.9 hPa NNE 18.7 km/h 24.1 km/h 31 % 0 mm
14:46 33.2 °C 14.3 °C 1003.6 hPa North 15.3 km/h 33.8 km/h 32 % 0 mm
14:51 33.6 °C 13.7 °C 1003.3 hPa North 22.7 km/h 37 km/h 30 % 0 mm
14:56 33.8 °C 13.8 °C 1003.6 hPa NNE 20.1 km/h 31.5 km/h 30 % 0 mm
15:01 33.8 °C 13.8 °C 1003.3 hPa North 19.3 km/h 29.6 km/h 30 % 0 mm
15:06 34.1 °C 13.6 °C 1003.3 hPa NE 20.3 km/h 29.6 km/h 29 % 0 mm
15:11 34.4 °C 13.8 °C 1002.9 hPa North 14.3 km/h 20.4 km/h 29 % 0 mm
15:16 34.5 °C 13.9 °C 1002.9 hPa NNE 21.1 km/h 35.4 km/h 29 % 0 mm
15:21 34.7 °C 13.5 °C 1002.6 hPa NNE 12.7 km/h 20.4 km/h 28 % 0 mm
15:26 34.8 °C 13.6 °C 1002.6 hPa North 14 km/h 18.5 km/h 28 % 0 mm
15:31 35.2 °C 13.3 °C 1002.3 hPa NNE 26.9 km/h 42.6 km/h 27 % 0 mm
15:36 35.3 °C 14 °C 1002.3 hPa NE 16.7 km/h 27.4 km/h 28 % 0 mm
15:41 35.4 °C 14.2 °C 1001.9 hPa NNW 13.4 km/h 29.6 km/h 28 % 0 mm
15:46 35.4 °C 14.1 °C 1001.9 hPa North 25.9 km/h 33.3 km/h 28 % 0 mm
15:51 35.3 °C 14 °C 1001.9 hPa North 19 km/h 29.6 km/h 28 % 0 mm
15:56 34.8 °C 14.2 °C 1001.9 hPa North 23.2 km/h 33.3 km/h 29 % 0 mm
16:01 35.1 °C 14.4 °C 1001.6 hPa NNW 13.4 km/h 24.1 km/h 29 % 0 mm
16:06 35.6 °C 14.2 °C 1001.6 hPa NNE 20.3 km/h 27.8 km/h 28 % 0 mm
16:11 35.6 °C 14.3 °C 1001.6 hPa NNW 23.2 km/h 29.6 km/h 28 % 0 mm
16:16 35.3 °C 14 °C 1001.6 hPa NNE 16.1 km/h 22.2 km/h 28 % 0 mm
16:21 35.2 °C 13.9 °C 1001.6 hPa North 21.9 km/h 31.5 km/h 28 % 0 mm
16:26 35.3 °C 14.1 °C 1001.6 hPa North 18.2 km/h 25.9 km/h 28 % 0 mm
16:31 34.9 °C 14.2 °C 1001.6 hPa North 22.5 km/h 31.5 km/h 29 % 0 mm
16:36 34.6 °C 13.9 °C 1001.6 hPa NNW 17.5 km/h 27.4 km/h 29 % 0 mm
16:41 34.5 °C 14.4 °C 1001.2 hPa NW 11.3 km/h 18.5 km/h 30 % 0 mm
16:46 34.6 °C 14.4 °C 1001.2 hPa NNW 10.8 km/h 14.8 km/h 30 % 0 mm
16:51 34.6 °C 14.5 °C 1001.2 hPa North 20.9 km/h 31.5 km/h 30 % 0 mm
16:56 34.4 °C 13.8 °C 1000.9 hPa North 15.4 km/h 25.9 km/h 29 % 0 mm
17:01 34.6 °C 14 °C 1000.9 hPa North 17.9 km/h 31.5 km/h 29 % 0 mm
17:06 34.9 °C 14.2 °C 1000.9 hPa NNW 12.4 km/h 25.9 km/h 29 % 0 mm
17:11 34.8 °C 14.2 °C 1000.9 hPa NE 7.7 km/h 18.5 km/h 29 % 0 mm
17:16 34.8 °C 14.1 °C 1000.9 hPa NE 15 km/h 22.2 km/h 29 % 0 mm
17:21 34.6 °C 13.9 °C 1000.6 hPa NNE 21.4 km/h 31.5 km/h 29 % 0 mm
17:26 34.6 °C 14 °C 1000.6 hPa North 15.9 km/h 27.8 km/h 29 % 0 mm
17:31 34.8 °C 14.1 °C 1000.6 hPa NNE 18.3 km/h 32.2 km/h 29 % 0 mm
17:36 34.9 °C 13.7 °C 1000.6 hPa North 20.4 km/h 27.8 km/h 28 % 0 mm
17:41 34.8 °C 14.1 °C 1000.6 hPa North 16.3 km/h 25.9 km/h 29 % 0 mm
17:46 34.6 °C 14 °C 1000.6 hPa NW 8.7 km/h 16.7 km/h 29 % 0 mm
17:51 34.4 °C 13.8 °C 1000.6 hPa North 18.7 km/h 31.5 km/h 29 % 0 mm
17:56 34.3 °C 13.7 °C 1000.6 hPa North 14.8 km/h 27.8 km/h 29 % 0 mm
18:01 34.3 °C 13.7 °C 1000.6 hPa NNE 16.4 km/h 24.1 km/h 29 % 0 mm
18:06 34.4 °C 13.8 °C 1000.6 hPa NNE 9.7 km/h 16.7 km/h 29 % 0 mm
18:11 34.3 °C 13.7 °C 1000.6 hPa NNE 13.5 km/h 22.2 km/h 29 % 0 mm
18:16 34.2 °C 14.1 °C 1000.2 hPa NNE 9.3 km/h 18.5 km/h 30 % 0 mm
18:21 34 °C 13.4 °C 1000.2 hPa North 15.1 km/h 25.9 km/h 29 % 0 mm
18:26 33.9 °C 13.9 °C 1000.2 hPa NNE 9 km/h 13 km/h 30 % 0 mm
18:31 33.8 °C 13.8 °C 1000.2 hPa NNE 9.5 km/h 16.7 km/h 30 % 0 mm
18:36 33.7 °C 14.2 °C 1000.2 hPa NNE 12.7 km/h 16.7 km/h 31 % 0 mm
18:41 33.5 °C 14.1 °C 1000.6 hPa North 10.9 km/h 20.4 km/h 31 % 0 mm
18:46 33.1 °C 14.7 °C 1001.2 hPa North 31.1 km/h 40.7 km/h 33 % 0 mm
18:51 32.2 °C 14.8 °C 1001.6 hPa NW 23.3 km/h 35.2 km/h 35 % 0 mm
18:56 31.4 °C 14.9 °C 1001.6 hPa NW 21.2 km/h 29.6 km/h 37 % 0 mm
19:01 30.8 °C 16 °C 1001.6 hPa West 7.9 km/h 16.1 km/h 41 % 0 mm
19:06 29.6 °C 17.4 °C 1001.2 hPa WSW 5.8 km/h 7.4 km/h 48 % 0 mm
19:11 28.7 °C 17.2 °C 1000.9 hPa North 11.4 km/h 18.5 km/h 50 % 0 mm
19:16 28.3 °C 17.2 °C 1001.2 hPa SW 11.1 km/h 14.8 km/h 51 % 0 mm
19:21 28.3 °C 17.2 °C 1001.2 hPa SW 0.6 km/h 1.9 km/h 51 % 0 mm
19:26 28.3 °C 17.2 °C 1001.2 hPa SW 1 km/h 4.8 km/h 51 % 0 mm
19:31 28.3 °C 17.2 °C 1001.6 hPa SW 3.1 km/h 5.6 km/h 51 % 0 mm
19:36 28.4 °C 17.3 °C 1001.6 hPa SW 1.6 km/h 4.8 km/h 51 % 0 mm
19:41 28.5 °C 17.4 °C 1001.6 hPa East 6.8 km/h 11.3 km/h 51 % 0 mm
19:46 28.4 °C 17 °C 1002.3 hPa NW 8.5 km/h 11.3 km/h 50 % 0 mm
19:51 27.8 °C 18.6 °C 1002.6 hPa West 14.8 km/h 20.4 km/h 57 % 0.25 mm
19:56 26.4 °C 18.6 °C 1002.3 hPa WNW 8.7 km/h 13 km/h 62 % 0.51 mm
20:01 25.7 °C 19.1 °C 1002.3 hPa WNW 4.8 km/h 5.6 km/h 67 % 0.51 mm
20:06 25.3 °C 19.2 °C 1001.9 hPa Calm   1.9 km/h 69 % 0.51 mm
20:11 24.9 °C 19.7 °C 1001.6 hPa WNW 6.8 km/h 8 km/h 73 % 0.76 mm
20:16 24.5 °C 20 °C 1001.6 hPa WNW 3.7 km/h 5.6 km/h 76 % 0.76 mm
20:21 24.2 °C 19.7 °C 1001.2 hPa WNW 2.1 km/h 5.6 km/h 76 % 0.76 mm
20:26 23.8 °C 19.5 °C 1001.6 hPa North 0.5 km/h 3.2 km/h 77 % 0.76 mm
20:31 23.6 °C 19.9 °C 1001.6 hPa WNW 3.4 km/h 5.6 km/h 80 % 0.76 mm
20:36 23.5 °C 20.2 °C 1001.6 hPa Calm   1.9 km/h 82 % 0.76 mm
20:41 23.3 °C 19.9 °C 1001.2 hPa North 1.1 km/h 5.6 km/h 81 % 0.76 mm
20:46 23.3 °C 19.9 °C 1001.2 hPa ENE 2.3 km/h 5.6 km/h 81 % 0.76 mm
20:51 23.3 °C 19.6 °C 1001.2 hPa ENE 2.4 km/h 5.6 km/h 80 % 0.51 mm
20:56 23.3 °C 19.4 °C 1001.6 hPa ENE 1.6 km/h 1.6 km/h 79 % 0.25 mm
21:01 23.2 °C 19.6 °C 1001.6 hPa Calm     80 % 0.25 mm
21:06 23.2 °C 19.6 °C 1001.9 hPa ENE 4 km/h 5.6 km/h 80 % 0.25 mm
21:11 23.4 °C 19.7 °C 1002.6 hPa NNE 8 km/h 8 km/h 80 % 0 mm
21:16 23.6 °C 19.9 °C 1002.9 hPa North 5.6 km/h 9.3 km/h 80 % 0 mm
21:21 23.6 °C 19.9 °C 1002.6 hPa North 0.8 km/h 4.8 km/h 80 % 0 mm
21:26 23.6 °C 19.6 °C 1002.6 hPa NW 4.7 km/h 7.4 km/h 78 % 0 mm
21:31 23.8 °C 19.3 °C 1002.6 hPa NW 4.5 km/h 9.3 km/h 76 % 0 mm
21:36 24.1 °C 19.2 °C 1002.6 hPa Calm   3.7 km/h 74 % 0 mm
21:41 24.2 °C 19.1 °C 1002.3 hPa Calm   1.9 km/h 73 % 0 mm
21:46 24.3 °C 18.9 °C 1002.3 hPa NW 2.7 km/h 3.7 km/h 72 % 0 mm
21:51 24.3 °C 18.9 °C 1001.9 hPa NW 5.1 km/h 5.6 km/h 72 % 0 mm
21:56 24.4 °C 19.1 °C 1001.9 hPa NNW 3.2 km/h 5.6 km/h 72 % 0 mm
22:01 24.5 °C 18.9 °C 1001.9 hPa NNW 1.9 km/h 3.7 km/h 71 % 0 mm
22:06 24.5 °C 18.9 °C 1002.3 hPa Calm     71 % 0 mm
22:11 24.4 °C 19 °C 1002.3 hPa NNW 1.4 km/h 3.2 km/h 72 % 0 mm
22:16 24.3 °C 19.3 °C 1002.3 hPa Calm     74 % 0 mm
22:21 24 °C 19.3 °C 1002.3 hPa Calm     75 % 0 mm
22:26 23.9 °C 19.4 °C 1002.3 hPa NNW 0.3 km/h 3.2 km/h 76 % 0 mm
22:31 23.8 °C 19.5 °C 1002.3 hPa NNW 4 km/h 5.6 km/h 77 % 0 mm
22:36 23.8 °C 19.3 °C 1002.3 hPa NNW 0.2 km/h 3.7 km/h 76 % 0 mm
22:41 23.8 °C 19.1 °C 1001.9 hPa NNW 0.3 km/h 5.6 km/h 75 % 0 mm
22:46 23.9 °C 18.9 °C 1001.6 hPa NNW 0.8 km/h 3.7 km/h 74 % 0 mm
22:51 24 °C 19.1 °C 1001.9 hPa NNW 5.5 km/h 5.6 km/h 74 % 0 mm
22:56 24.1 °C 18.9 °C 1001.9 hPa North 2.9 km/h 5.6 km/h 73 % 0 mm
23:01 24.1 °C 18.9 °C 1001.9 hPa NNW 1.8 km/h 3.7 km/h 73 % 0 mm
23:06 24.2 °C 19 °C 1001.9 hPa Calm   1.6 km/h 73 % 0 mm
23:11 24.2 °C 19.1 °C 1001.9 hPa NNW 5.3 km/h 6.4 km/h 73 % 0 mm
23:12 24.2 °C 19.1 °C 1001.9 hPa NNW 4.8 km/h 5.6 km/h 73 % 0 mm
23:17 24.3 °C 18.9 °C 1001.9 hPa NNW 5.3 km/h 5.6 km/h 72 % 0 mm
23:22 24.4 °C 18.6 °C 1001.9 hPa NNW 3.2 km/h 5.6 km/h 70 % 0 mm
23:27 24.7 °C 18.6 °C 1001.9 hPa NNW 2.6 km/h 5.6 km/h 69 % 0 mm
23:32 24.8 °C 18.4 °C 1001.6 hPa NNW 3.4 km/h 3.7 km/h 68 % 0 mm
23:37 24.8 °C 18.3 °C 1001.6 hPa North 2.3 km/h 3.7 km/h 67 % 0 mm
23:42 24.8 °C 18.4 °C 1001.6 hPa NNW 1.9 km/h 4.8 km/h 68 % 0 mm
23:47 24.8 °C 18.3 °C 1001.6 hPa NNW 3.4 km/h 5.6 km/h 67 % 0 mm
23:52 24.8 °C 18.4 °C 1001.6 hPa NNW 4.3 km/h 5.6 km/h 68 % 0 mm
23:57 24.7 °C 18.2 °C 1001.2 hPa NNW 3.5 km/h 5.6 km/h 67 % 0 mm
Ararat Weather
Compliments of Weather Underground - 2.5 mb
Click here to send mail.


ABOUT

Live weather data from Ararat, Victoria, Australia, 3377
Data uploaded from Cumulus every 5 minutes to Weather Underground.
This site then downloads the raw data for formatting and display.
Metric and imperial data can be displayed. Graphs and historical data available.
Includes Sun and Moon times and rain image live from BOM.

Check out Ararat Weather on Facebook, Twitter and Google +

Help support ongoing costs by checking out the ads





Follow @AraratWeather